Location: Chacón
(10.5789°N, 66.9317°W)
Time: 21:59:43
(UTC+00:00)

Sakura Rocket - Pass Details

Date: 18 August 2024
Orbit: 475 x 1710 km, 28.7° (Epoch: 09 September)

Event Time Altitude Azimuth Distance (km) Brightness Sun altitude
Exits shadow 07:11:47 19° 101° (E) 2,222 6.2 -43.8°
Drops below altitude 10° 07:13:51 10° 106° (ESE) 2,951 6.9 -43.4°
Sets 07:17:12 0° 110° (ESE) 4,132 7.7 -42.7°
